This demonstration page uses our WeatherBlox Daily Observations layout. Learn more.

Left ArrowRight Arrow

Hourly Observations for June 14, 2017

Temp ( °F °C ) Dew Point ( °F °C ) Humidity (%) Winds ( mph kmh ) Pressure ( in mb ) Visibility ( mi km ) Precip ( " mm )
12:51 am 00:51 Clear 72 22.2 4 -15.6 7 7 NW 8 13 29.73 1007 10 16 N/A
1:51 am 01:51 Clear 67 19.4 4 -15.6 8 8 WNW 5 7 29.74 1007 10 16 N/A
2:51 am 02:51 Clear 59 15 2 -16.7 10 10 E 6 9 29.75 1007 10 16 N/A
3:51 am 03:51 Clear 57 13.9 3 -16.1 11 11 SE 5 7 29.76 1008 10 16 N/A
4:51 am 04:51 Clear 56 13.3 4 -15.6 12 12 N N/A 29.78 1008 10 16 N/A
5:51 am 05:51 Sunny 57 13.9 6 -14.4 13 13 E 3 6 29.80 1009 10 16 N/A
6:51 am 06:51 Sunny 72 22.2 8 -13.3 8 8 N N/A 29.80 1009 10 16 N/A
7:51 am 07:51 Sunny 75 23.9 9 -12.8 8 8 NNW 3 6 29.81 1010 10 16 N/A
8:51 am 08:51 Sunny 79 26.1 11 -11.7 7 7 VRB 3 6 29.82 1010 10 16 N/A
9:51 am 09:51 Sunny 83 28.3 10 -12.2 6 6 VRB 5 7 29.81 1010 10 16 N/A
10:51 am 10:51 Sunny N/A N/A N/A undefined N/A N/A N/A N/A
11:51 am 11:51 Sunny N/A N/A N/A undefined N/A N/A N/A N/A
12:51 pm 12:51 Sunny N/A N/A N/A undefined N/A N/A N/A N/A
1:51 pm 13:51 Sunny 97 36.1 9 -12.8 4 4 SE 5 7 29.73 1007 10 16 N/A
2:51 pm 14:51 Sunny 99 37.2 9 -12.8 3 3 W 5 7 29.72 1006 10 16 N/A
3:51 pm 15:51 Sunny 100 37.8 8 -13.3 3 3 W 7 11 29.70 1006 10 16 N/A
4:51 pm 16:51 Sunny 100 37.8 8 -13.3 3 3 N N/A 29.69 1006 10 16 N/A
5:51 pm 17:51 Mostly Sunny 100 37.8 7 -13.9 3 3 NW 7 11 29.68 1005 10 16 N/A
6:51 pm 18:51 Sunny 98 36.7 6 -14.4 3 3 WNW 12 19 29.67 1005 10 16 N/A
7:51 pm 19:51 Clear 90 32.2 -5 -20.6 2 2 NW 10 17 29.70 1006 10 16 N/A
8:51 pm 20:51 Clear 87 30.6 -7 -21.7 2 2 NW 9 15 29.72 1006 10 16 N/A
9:51 pm 21:51 Clear 84 28.9 -6 -21.1 3 3 WNW 13 20 29.74 1007 10 16 N/A
10:51 pm 22:51 Clear 83 28.3 -5 -20.6 3 3 NW 13 20 29.71 1006 10 16 N/A
11:51 pm 23:51 Clear with Light Rain 77 25 -4 -20 4 4 NNW 7 11 29.74 1007 10 16 N/A

Powered by AerisWeather